Погода в Канске

Погода в Канске : погода сейчас, прогноз погоды и архив. Всё, что Вы хотите узнать о погоде в Канске!

Хотите узнать прогноз погоды в Канске? Тогда Вам сюда: Погода в Канске

Поиск расширенной информации на нашем сайте:

Другие новости

Новости СМИ2

Главная страница сайта

Новости сайта

02.10.2013

Напоминаем, что на нашем новом сайте вы можете получить высокодетализированные прогнозы погоды по пунктам России, СНГ и мира (включающие важные для авиации метеовеличины, такие как направление и скорость ветра, видимость, явления погоды, количество и форма облачности, нижняя и верхняя граница облачности), а также ознакомиться с разнообразными материалами по авиационной метеорологии и подборкой полезных ссылок на эту тему.

Сайт Метеоцентр.Азия посвящён разработке технологий оптимизации авиаметеорологического обслуживания, включая проектирование и перспективное создание нескольких автоматизированных авиаметеорологических систем:
- система выпуска высокодетальных прогностических карт явлений погоды для нижнего воздушного пространства по России и ближнему зарубежью;
- система верификации прогнозов TAF (выпускаемых синоптиками официальных АМСГ РФ и ближнего зарубежья) и AUTOTAF (выпускаемых сайтом Метеоцентр.Азия) - выявление ошибок, онлайн-сопоставление с фактической погодой METAR, автоматическое внесение коррективов в прогнозы при резком отклонении фактической погоды от прогноза, подсчёт оправдываемости прогнозов по элементам и в целом;
- система обработки, анализа и отображения авиаметеорологической информации для применения провайдерами метеорологической информации.


Погода в Канске - сегодня

Время (UTC), дата Ветер
(°,м/с) 
Видим.   Явления Облачность Т
(°С)
Тd
(°С)
f(%) Тe
(°С)
Pmin
(гПа)
dP
(гПа)
Po
(мм)
O2
(г/м3)
Тmin Tmax R s Состояние
почвы
15 26.05.17 320 (СЗ) 2{12}  н/о    1/1 600 м 
[Cu hum]
+6.8 +0.5 64 +7  1018.5  3.6  745  293           
18 26.05.17 270 (З) н/о    ясно 
+2.8 -1.1 75 +4  1020.6  1.7  746  298           
21 26.05.17 250 (З) 20000 м    9/5 600 м кучево-дожд., средняя 
[Cb cap|Ac trans]
+4.1 -1.4 67 +5  1021.2  0.8  747  297           
00 27.05.17 270 (З) 20000 м  в посл. час ливневой снег  8/3 600 м кучево-дожд., средняя, верхняя 
[Cb cap|Ac trans|Ci fib]
+3.8 +2.8 93 +3  1023.8  2.5  749  297  +1.9       
03 27.05.17 280 (З) 20000 м    9/4 600 м кучево-дожд., средняя, верхняя 
[Cb cap|Ac trans|Ci fib]
+7.3 +1.7 68 +7  1026.5  751  295           
06 27.05.17 280 (З) 20000 м    6/3 600 м кучево-дожд., средняя, верхняя 
[Cb cap|Ac trans|Ci fib]
+11.4 -0.8 43 +11  1026.7  0.5  752  291           
09 27.05.17 270 (З) 20000 м    8/3 600 м средняя, верхняя 
[Cu med, cong|Ac trans|Ci fib]
+13.5 -3.6 30 +14  1025.1  -1.4  751  289           
12 27.05.17 280 (З) 20000 м    6/0 средняя 
[Ac lent]
+13.1 -3.6 31 +14  1023.3  -1.8  749  288    +14.5       
15 27.05.17 180 (Ю) н/о    8/0 средняя 
[Ac As]
+8.4 +0.7 58 +9  1022.7  -1  748  292           
18 27.05.17 080 (В) н/о    8/0 средняя 
[Ac As]
+7 +1.9 70 +8  1021.8  -0.9  748  293           
21 27.05.17 090 (В) 20000 м    4/0 средняя 
[Ac As]
+3 +0.9 86 +4  1021.5  -0.7  747  298           
00 28.05.17 130 (ЮВ) 20000 м    9/0 верхняя 
[Ci]
+6.9 +1.7 69 +8  1020.6  -0.5  747  293  +1.7        влажная 
03 28.05.17 тихо ()   20000 м    6/0 верхняя 
[Ci]
+15.6 +1.9 40 +16  1018.1  -1.8  746  284           
06 28.05.17 330 (СЗ) 20000 м    3/0 верхняя 
[Ci fib]
+19.7 -0.3 26 +21  1016.1  -1.6  744  280           
09 28.05.17 070 (В) 20000 м    8/0 верхняя 
[Ci fib]
+20.9 +0.2 25 +21  1014.1  -1.8  743  278           
12 28.05.17 080 (В) 20000 м    9/0 верхняя 
[Ci fib]
+20.1 +1.9 30 +20  1013.2  -1  742  278    +21.7       
15 28.05.17 140 (ЮВ) н/о    8/0 верхняя 
[Ci fib]
+10.7 +4.5 65 +10  1013.4  -0.5  742  287           
18 28.05.17 080 (В) н/о    9/0 средняя, верхняя 
[Ac trans|Ci fib]
+11.4 +4 60 +12  1012.8  -0.6  741  286           
21 28.05.17 070 (В) 20000 м    9/0 средняя, верхняя 
[Ac trans|Ci fib]
+8.1 +3.7 74 +9  1011.6  -1.4  740  289           
00 29.05.17 090 (В) 20000 м    9/0 средняя, верхняя 
[Ac trans|Ci fib]
+10.9 +4.5 65 +11  1010.6  -0.7  740  286  +6.6         
03 29.05.17 120 (ЮВ) 20000 м    8/0 верхняя 
[Ci sp]
+18.8 +3.8 37 +19  1007.6  -2.3  738  278           
06 29.05.17 070 (В) 20000 м    6/0 верхняя 
[Ci fib]
+25 +5.4 28 +25  1005.3  -1.8  737  271           
09 29.05.17 150 (ЮВ) 20000 м    8/0 верхняя 
[Cs]
+25.9 +5.2 26 +26  1003.9  -1.3  736  270           
12 29.05.17 110 (В) 20000 м    9/4 600 м кучево-дожд., средняя 
[Cb cap|Ac trans]
+23.2 +6.8 35 +23  1004  -0.1  736  272    +27       
15 29.05.17 270 (З) н/о    9/5 600 м кучево-дожд., средняя 
[Cb cap|Ac trans]
+18.9 +10.6 59 +22  1006.2  1.8  737  276           
Время (UTC), дата Ветер
(°,м/с) 
Видим.   Явления Облачность Т
(°С)
Тd
(°С)
f(%) Тe
(°С)
Pmin
(гПа)
dP
(гПа)
Po
(мм)
O2
(г/м3)
Тmin Tmax R s Состояние
почвы

Для получения пояснительной информации подведите курсор к названию столбца.

ПОГОДА в Канске - архив

Всё, что Вы хотите узнать о погоде в Канске - удобно и подробно!

Выберите нужную дату (начиная с 1 января 2015* года) и нажмите кнопку "Найти".
Будут отображены архивные сводки погоды по пункту Канск, начиная с указанной даты.


Отображать данные в формате CSV (для использования в таблицах Excel)


Внимание! Наш архив погоды предназначен исключительно для личного некоммерческого использования в познавательных целях. Если Вам необходимы официальные справки о состоянии погоды (для производственных, юридических, коммерческих и т.п. целей), обращайтесь в органы Росгидромета.

*Примечание: данная дата относится к архиву по метеостанциям СССР (Россия, СНГ, Балтия).
Архив по метеостанциям Зарубежной Европы и Азии (кроме Китая) хранится 10 дней, по другим регионам земного шара (Китай, Африка, Америка, Австралия, Океания) - 1 день.

Канск - район местоположения метеостанции


Название, широта, долгота, высота метеостанции:
Канск 56.2°ш. 95.6°д. 207 м над ур. моря [Российская Федерация]

Дополнительная информация

В oтличие oт бoльшинства пoгoдных сайтoв мы публикуем пoдрoбную метеoинфoрмацию в детальнoм прoфессиoнальнoм фoрмате.

Характеристики температуры и влажнoсти вoздуха измеряются на высoте 2 м в тени вдали oт зданий и деревьев.
Скoрoсть ветра измеряется на высoте 10 м (на урoвне рoста челoвека скoрoсть ветра ниже в 1.5-2 раза). Если метеoстанция нахoдится в гoрoде или в лесу, тo скoрoсть ветра занижена на 2-4 м/с пo сравнению с oткрытым местoм. Скoрoсть ветра над акватoриями крупных рек и oзёр, а также на вершинах хoлмoв на 2-5 м/с выше, чем в oбычных услoвиях.
Атмoсфернoе давление в разных тoчках местнoсти мoжет значительнo oтличаться oт давления на метеoстанции, в зависимoсти oт услoвий рельефа (при пoдъёме на 10 м давление пoнижается примернo на 1 мм рт.ст.).